Time,TemperatureF,DewpointF,PressureIn,WindDirection,WindDirectionDegrees,WindSpeedMPH,WindSpeedGustMPH,Humidity,HourlyPrecipIn,Conditions,Clouds,dailyrainin,SoftwareType,DateUTC
2013-05-08 00:02:00,55.8,49.6,29.98,SW,225,0.0,0.0,80,0.00,,,0.00,meteohub,2013-05-08 05:02:00,
2013-05-08 00:07:00,55.4,49.3,29.98,SSW,203,0.0,0.0,80,0.00,,,0.00,meteohub,2013-05-08 05:07:00,
2013-05-08 00:12:00,55.6,49.8,29.98,South,180,0.0,0.0,81,0.00,,,0.00,meteohub,2013-05-08 05:12:00,
2013-05-08 00:17:00,55.0,49.3,29.98,ESE,113,0.0,0.0,81,0.00,,,0.00,meteohub,2013-05-08 05:17:00,
2013-05-08 00:22:00,55.0,49.3,29.98,ESE,113,0.0,0.0,81,0.00,,,0.00,meteohub,2013-05-08 05:22:00,
2013-05-08 00:27:00,55.0,49.3,29.98,SSW,203,0.0,0.0,81,0.00,,,0.00,meteohub,2013-05-08 05:27:00,
2013-05-08 00:32:00,54.9,49.1,29.98,NW,315,0.0,0.0,81,0.00,,,0.00,meteohub,2013-05-08 05:32:00,
2013-05-08 00:37:00,54.7,48.9,29.98,SE,135,0.0,0.0,81,0.00,,,0.00,meteohub,2013-05-08 05:37:00,
2013-05-08 00:42:00,54.3,48.9,29.98,West,270,0.0,0.0,82,0.00,,,0.00,meteohub,2013-05-08 05:42:00,
2013-05-08 00:47:00,54.3,48.9,29.98,South,180,0.0,0.0,82,0.00,,,0.00,meteohub,2013-05-08 05:47:00,
2013-05-08 00:52:00,54.1,48.7,29.98,SE,135,0.0,0.0,82,0.00,,,0.00,meteohub,2013-05-08 05:52:00,
2013-05-08 00:57:00,53.8,48.7,29.98,SE,135,0.0,0.0,83,0.00,,,0.00,meteohub,2013-05-08 05:57:00,
2013-05-08 01:02:00,53.8,48.7,29.98,NW,315,0.0,0.0,83,0.00,,,0.00,meteohub,2013-05-08 06:02:00,
2013-05-08 01:07:00,53.4,48.4,29.99,NW,315,0.0,0.0,83,0.00,,,0.00,meteohub,2013-05-08 06:07:00,
2013-05-08 01:12:00,53.4,48.4,29.99,NW,315,0.0,0.0,83,0.00,,,0.00,meteohub,2013-05-08 06:12:00,
2013-05-08 01:17:00,53.2,48.2,29.99,WSW,248,0.0,0.0,83,0.00,,,0.00,meteohub,2013-05-08 06:17:00,
2013-05-08 01:22:00,53.1,48.0,29.98,ESE,113,0.0,0.0,83,0.00,,,0.00,meteohub,2013-05-08 06:22:00,
2013-05-08 01:27:00,53.1,48.0,29.98,ESE,113,0.0,0.0,83,0.00,,,0.00,meteohub,2013-05-08 06:27:00,
2013-05-08 01:32:00,52.7,48.0,29.98,South,180,0.0,0.0,84,0.00,,,0.00,meteohub,2013-05-08 06:32:00,
2013-05-08 01:37:00,52.7,48.0,29.98,ESE,113,0.0,0.0,84,0.00,,,0.00,meteohub,2013-05-08 06:37:00,
2013-05-08 01:42:00,52.7,48.0,29.97,ESE,113,0.0,0.0,84,0.00,,,0.00,meteohub,2013-05-08 06:42:00,
2013-05-08 01:47:00,52.7,48.0,29.97,ESE,113,0.0,0.0,84,0.00,,,0.00,meteohub,2013-05-08 06:47:00,
2013-05-08 01:52:00,52.7,48.0,29.97,ESE,113,0.0,0.0,84,0.00,,,0.00,meteohub,2013-05-08 06:52:00,
2013-05-08 01:57:00,52.5,48.2,29.97,ESE,113,0.0,0.0,85,0.00,,,0.00,meteohub,2013-05-08 06:57:00,
2013-05-08 02:02:00,52.3,48.0,29.98,SE,135,0.0,0.0,85,0.00,,,0.00,meteohub,2013-05-08 07:02:00,
2013-05-08 02:07:00,52.3,48.0,29.98,WSW,248,0.0,0.0,85,0.00,,,0.00,meteohub,2013-05-08 07:07:00,
2013-05-08 02:12:00,52.2,47.8,29.98,South,180,0.0,0.0,85,0.00,,,0.00,meteohub,2013-05-08 07:12:00,
2013-05-08 02:17:00,52.2,47.8,29.98,West,270,0.0,0.0,85,0.00,,,0.00,meteohub,2013-05-08 07:17:00,
2013-05-08 02:22:00,52.2,47.8,29.98,WSW,248,0.0,0.0,85,0.00,,,0.00,meteohub,2013-05-08 07:22:00,
2013-05-08 02:27:00,52.0,47.7,29.98,WSW,248,0.0,0.0,85,0.00,,,0.00,meteohub,2013-05-08 07:27:00,
2013-05-08 02:32:00,52.0,47.7,29.98,South,180,0.0,0.0,85,0.00,,,0.00,meteohub,2013-05-08 07:32:00,
2013-05-08 02:37:00,51.6,47.3,29.98,ESE,113,0.0,0.0,85,0.00,,,0.00,meteohub,2013-05-08 07:37:00,
2013-05-08 02:42:00,51.6,47.3,29.96,ESE,113,0.0,0.0,85,0.00,,,0.00,meteohub,2013-05-08 07:42:00,
2013-05-08 02:47:00,51.6,47.5,29.96,South,180,0.0,0.0,86,0.00,,,0.00,meteohub,2013-05-08 07:47:00,
2013-05-08 02:52:00,51.4,47.5,29.96,South,180,0.0,0.0,86,0.00,,,0.00,meteohub,2013-05-08 07:52:00,
2013-05-08 02:57:00,51.6,47.5,29.96,NNE,23,0.0,0.0,86,0.00,,,0.00,meteohub,2013-05-08 07:57:00,
2013-05-08 03:02:00,51.4,47.5,29.97,ENE,68,0.0,0.0,86,0.00,,,0.00,meteohub,2013-05-08 08:02:00,
2013-05-08 03:07:00,51.4,47.5,29.97,NE,45,0.0,0.0,86,0.00,,,0.00,meteohub,2013-05-08 08:07:00,
2013-05-08 03:12:00,51.4,47.5,29.97,ENE,68,0.0,0.0,86,0.00,,,0.00,meteohub,2013-05-08 08:12:00,
2013-05-08 03:17:00,51.3,47.3,29.98,ESE,113,0.0,0.0,86,0.00,,,0.00,meteohub,2013-05-08 08:17:00,
2013-05-08 03:22:00,51.3,47.3,29.98,WNW,293,0.0,0.0,86,0.00,,,0.00,meteohub,2013-05-08 08:22:00,
2013-05-08 03:27:00,51.3,47.3,29.98,ESE,113,0.0,0.0,86,0.00,,,0.00,meteohub,2013-05-08 08:27:00,
2013-05-08 03:32:00,51.3,47.3,29.98,ESE,113,0.0,0.0,86,0.00,,,0.00,meteohub,2013-05-08 08:32:00,
2013-05-08 03:37:00,51.3,47.3,29.98,NNE,23,0.0,0.0,86,0.00,,,0.00,meteohub,2013-05-08 08:37:00,
2013-05-08 03:42:00,51.1,47.1,29.96,NW,315,0.0,0.0,86,0.00,,,0.00,meteohub,2013-05-08 08:42:00,
2013-05-08 03:47:00,50.9,46.9,29.96,ESE,113,0.0,0.0,86,0.00,,,0.00,meteohub,2013-05-08 08:47:00,
2013-05-08 03:52:00,50.9,46.9,29.96,ENE,68,0.0,0.0,86,0.00,,,0.00,meteohub,2013-05-08 08:52:00,
2013-05-08 03:57:00,50.7,46.8,29.96,SW,225,0.0,0.0,86,0.00,,,0.00,meteohub,2013-05-08 08:57:00,
2013-05-08 04:02:00,50.9,46.9,29.96,ESE,113,0.0,0.0,86,0.00,,,0.00,meteohub,2013-05-08 09:02:00,
2013-05-08 04:07:00,50.7,46.8,29.96,ESE,113,0.0,0.0,86,0.00,,,0.00,meteohub,2013-05-08 09:07:00,
2013-05-08 04:12:00,50.9,47.1,29.96,East,90,0.0,0.0,87,0.00,,,0.00,meteohub,2013-05-08 09:12:00,
2013-05-08 04:17:00,50.7,46.9,29.96,WSW,248,0.0,0.0,87,0.00,,,0.00,meteohub,2013-05-08 09:17:00,
2013-05-08 04:22:00,50.5,46.8,29.96,WSW,248,0.0,0.0,87,0.00,,,0.00,meteohub,2013-05-08 09:22:00,
2013-05-08 04:27:00,50.5,46.8,29.96,South,180,0.0,0.0,87,0.00,,,0.00,meteohub,2013-05-08 09:27:00,
2013-05-08 04:32:00,50.5,46.8,29.96,ESE,113,0.0,0.0,87,0.00,,,0.00,meteohub,2013-05-08 09:32:00,
2013-05-08 04:37:00,50.4,46.6,29.96,ESE,113,0.0,0.0,87,0.00,,,0.00,meteohub,2013-05-08 09:37:00,
2013-05-08 04:42:00,50.4,46.6,29.96,West,270,0.0,0.0,87,0.00,,,0.00,meteohub,2013-05-08 09:42:00,
2013-05-08 04:47:00,50.2,46.4,29.96,NW,315,0.0,0.0,87,0.00,,,0.00,meteohub,2013-05-08 09:47:00,
2013-05-08 04:52:00,50.2,46.4,29.96,ESE,113,0.0,0.0,87,0.00,,,0.00,meteohub,2013-05-08 09:52:00,
2013-05-08 04:57:00,50.0,46.2,29.97,ESE,113,0.0,0.0,87,0.00,,,0.00,meteohub,2013-05-08 09:57:00,
2013-05-08 05:02:00,50.0,46.2,29.96,ESE,113,0.0,0.0,87,0.00,,,0.00,meteohub,2013-05-08 10:02:00,
2013-05-08 05:07:00,50.0,46.2,29.96,South,180,0.0,0.0,87,0.00,,,0.00,meteohub,2013-05-08 10:07:00,
2013-05-08 05:12:00,50.0,46.2,29.96,South,180,0.0,0.0,87,0.00,,,0.00,meteohub,2013-05-08 10:12:00,
2013-05-08 05:17:00,49.8,46.4,29.96,West,270,0.0,0.0,88,0.00,,,0.00,meteohub,2013-05-08 10:17:00,
2013-05-08 05:22:00,49.8,46.4,29.96,ESE,113,0.0,0.0,88,0.00,,,0.00,meteohub,2013-05-08 10:22:00,
2013-05-08 05:27:00,49.8,46.4,29.96,NW,315,0.0,0.0,88,0.00,,,0.00,meteohub,2013-05-08 10:27:00,
2013-05-08 05:31:00,49.6,46.2,29.96,East,90,0.0,0.0,88,0.00,,,0.00,meteohub,2013-05-08 10:31:00,
2013-05-08 05:37:00,49.5,46.0,29.96,ESE,113,0.0,0.0,88,0.00,,,0.00,meteohub,2013-05-08 10:37:00,
2013-05-08 05:42:00,49.3,45.9,29.96,ESE,113,0.0,0.0,88,0.00,,,0.00,meteohub,2013-05-08 10:42:00,
2013-05-08 05:47:00,49.3,45.9,29.96,SE,135,0.0,0.0,88,0.00,,,0.00,meteohub,2013-05-08 10:47:00,
2013-05-08 05:52:00,49.3,45.9,29.96,South,180,0.0,0.0,88,0.00,,,0.00,meteohub,2013-05-08 10:52:00,
2013-05-08 05:57:00,49.1,45.7,29.96,SW,225,0.0,0.0,88,0.00,,,0.00,meteohub,2013-05-08 10:57:00,
2013-05-08 06:02:00,49.1,45.7,29.99,East,90,0.0,0.0,88,0.00,,,0.00,meteohub,2013-05-08 11:02:00,
2013-05-08 06:07:00,49.1,45.7,29.99,East,90,0.0,0.0,88,0.00,,,0.00,meteohub,2013-05-08 11:07:00,
2013-05-08 06:12:00,48.9,45.5,29.99,SSE,158,0.0,0.0,88,0.00,,,0.00,meteohub,2013-05-08 11:12:00,
2013-05-08 06:17:00,48.7,45.3,29.99,ESE,113,0.0,0.0,88,0.00,,,0.00,meteohub,2013-05-08 11:17:00,
2013-05-08 06:22:00,48.7,45.3,29.99,ESE,113,0.0,0.0,88,0.00,,,0.00,meteohub,2013-05-08 11:22:00,
2013-05-08 06:27:00,49.1,45.7,29.99,ESE,113,0.0,0.0,88,0.00,,,0.00,meteohub,2013-05-08 11:27:00,
2013-05-08 06:32:00,49.1,45.7,29.99,ESE,113,0.0,0.0,88,0.00,,,0.00,meteohub,2013-05-08 11:32:00,
2013-05-08 06:37:00,49.1,45.7,29.99,South,180,0.0,0.0,88,0.00,,,0.00,meteohub,2013-05-08 11:37:00,
2013-05-08 06:42:00,49.1,45.7,29.99,West,270,0.0,0.0,88,0.00,,,0.00,meteohub,2013-05-08 11:42:00,
2013-05-08 06:46:00,49.1,45.7,29.99,WSW,248,0.0,0.0,88,0.00,,,0.00,meteohub,2013-05-08 11:46:00,
2013-05-08 06:52:00,48.9,45.5,29.99,SW,225,0.0,0.0,88,0.00,,,0.00,meteohub,2013-05-08 11:52:00,
2013-05-08 06:57:00,48.9,45.5,29.99,ESE,113,0.0,0.0,88,0.00,,,0.00,meteohub,2013-05-08 11:57:00,
2013-05-08 07:02:00,48.9,45.9,30.00,NE,45,0.0,0.0,89,0.00,,,0.00,meteohub,2013-05-08 12:02:00,
2013-05-08 07:07:00,49.3,46.2,30.00,NNE,23,0.0,0.0,89,0.00,,,0.00,meteohub,2013-05-08 12:07:00,
2013-05-08 07:12:00,49.5,46.4,30.00,NNE,23,0.0,0.0,89,0.00,,,0.00,meteohub,2013-05-08 12:12:00,
2013-05-08 07:17:00,49.6,46.6,30.00,WNW,293,0.0,0.0,89,0.00,,,0.00,meteohub,2013-05-08 12:17:00,
2013-05-08 07:22:00,50.4,47.5,29.99,SW,225,0.0,0.0,90,0.00,,,0.00,meteohub,2013-05-08 12:22:00,
2013-05-08 07:27:00,50.9,48.0,29.99,WSW,248,0.0,0.0,90,0.00,,,0.00,meteohub,2013-05-08 12:27:00,
2013-05-08 07:32:00,51.3,48.4,29.99,West,270,0.0,0.0,90,0.00,,,0.00,meteohub,2013-05-08 12:32:00,
2013-05-08 07:37:00,52.0,49.1,29.99,West,270,0.0,0.0,90,0.00,,,0.00,meteohub,2013-05-08 12:37:00,
2013-05-08 07:42:00,52.7,49.8,30.00,WSW,248,0.0,0.0,90,0.00,,,0.00,meteohub,2013-05-08 12:42:00,
2013-05-08 07:47:00,53.2,50.4,29.99,WNW,293,0.0,0.0,90,0.00,,,0.00,meteohub,2013-05-08 12:47:00,
2013-05-08 07:52:00,53.6,50.7,29.99,WSW,248,0.0,0.0,90,0.00,,,0.00,meteohub,2013-05-08 12:52:00,
2013-05-08 07:57:00,54.3,51.4,29.99,West,270,0.0,0.0,90,0.00,,,0.00,meteohub,2013-05-08 12:57:00,
2013-05-08 08:02:00,54.7,51.8,30.00,NW,315,0.0,0.0,90,0.00,,,0.00,meteohub,2013-05-08 13:02:00,
2013-05-08 08:07:00,55.2,52.7,30.00,NW,315,0.0,0.0,91,0.00,,,0.00,meteohub,2013-05-08 13:07:00,
2013-05-08 08:12:00,55.8,53.2,30.00,SW,225,0.0,0.0,91,0.00,,,0.00,meteohub,2013-05-08 13:12:00,
2013-05-08 08:17:00,56.3,53.8,29.99,West,270,0.0,0.0,91,0.00,,,0.00,meteohub,2013-05-08 13:17:00,
2013-05-08 08:22:00,57.0,54.5,30.00,South,180,0.0,0.0,91,0.00,,,0.00,meteohub,2013-05-08 13:22:00,
2013-05-08 08:27:00,57.6,55.0,30.00,NNW,338,0.0,0.0,91,0.00,,,0.00,meteohub,2013-05-08 13:27:00,
2013-05-08 08:32:00,58.1,55.4,30.00,West,270,0.0,0.0,91,0.00,,,0.00,meteohub,2013-05-08 13:32:00,
2013-05-08 08:37:00,59.0,56.3,30.00,ESE,113,0.0,0.0,91,0.00,,,0.00,meteohub,2013-05-08 13:37:00,
2013-05-08 08:42:00,59.4,56.5,30.00,West,270,0.0,0.0,90,0.00,,,0.00,meteohub,2013-05-08 13:42:00,
2013-05-08 08:47:00,60.3,57.4,30.00,ESE,113,0.0,0.0,90,0.00,,,0.00,meteohub,2013-05-08 13:47:00,
2013-05-08 08:52:00,60.6,57.7,30.00,East,90,0.0,0.0,90,0.00,,,0.00,meteohub,2013-05-08 13:52:00,
2013-05-08 08:57:00,61.0,57.7,30.00,SSE,158,0.0,0.0,89,0.00,,,0.00,meteohub,2013-05-08 13:57:00,
2013-05-08 09:02:00,61.9,58.6,29.99,West,270,0.0,0.0,89,0.00,,,0.00,meteohub,2013-05-08 14:02:00,
2013-05-08 09:07:00,62.2,58.6,29.99,ESE,113,0.0,3.0,88,0.00,,,0.00,meteohub,2013-05-08 14:07:00,
2013-05-08 09:12:00,63.0,59.0,29.99,SE,135,1.0,3.0,87,0.00,,,0.00,meteohub,2013-05-08 14:12:00,
2013-05-08 09:17:00,63.9,59.2,29.99,SE,135,0.0,2.0,85,0.00,,,0.00,meteohub,2013-05-08 14:17:00,
2013-05-08 09:22:00,64.2,59.5,29.98,South,180,0.0,2.0,85,0.00,,,0.00,meteohub,2013-05-08 14:22:00,
2013-05-08 09:27:00,65.3,60.1,29.98,SW,225,3.0,3.0,83,0.00,,,0.00,meteohub,2013-05-08 14:27:00,
2013-05-08 09:32:00,65.7,59.7,29.98,SW,225,0.0,3.0,81,0.00,,,0.00,meteohub,2013-05-08 14:32:00,
2013-05-08 09:37:00,66.4,60.1,29.98,SW,225,4.0,4.0,80,0.00,,,0.00,meteohub,2013-05-08 14:37:00,
2013-05-08 09:42:00,66.7,59.7,29.98,SSE,158,3.0,4.0,78,0.00,,,0.00,meteohub,2013-05-08 14:42:00,
2013-05-08 09:47:00,66.9,59.2,29.98,SW,225,5.0,5.0,76,0.00,,,0.00,meteohub,2013-05-08 14:47:00,
2013-05-08 09:52:00,66.9,59.2,29.98,South,180,2.0,5.0,76,0.00,,,0.00,meteohub,2013-05-08 14:52:00,
2013-05-08 09:57:00,67.1,59.4,29.98,South,180,2.0,5.0,76,0.00,,,0.00,meteohub,2013-05-08 14:57:00,
2013-05-08 10:02:00,67.1,59.4,29.99,South,180,2.0,5.0,76,0.00,,,0.00,meteohub,2013-05-08 15:02:00,
2013-05-08 10:07:00,67.1,58.8,29.99,SW,225,2.0,4.0,75,0.00,,,0.00,meteohub,2013-05-08 15:07:00,
2013-05-08 10:12:00,67.3,59.0,29.99,WSW,248,0.0,2.0,75,0.00,,,0.00,meteohub,2013-05-08 15:12:00,
2013-05-08 10:17:00,67.5,59.2,29.99,SW,225,3.0,3.0,75,0.00,,,0.00,meteohub,2013-05-08 15:17:00,
2013-05-08 10:22:00,67.8,59.5,29.99,South,180,2.0,3.0,75,0.00,,,0.00,meteohub,2013-05-08 15:22:00,
2013-05-08 10:27:00,67.8,59.5,29.99,SE,135,0.0,3.0,75,0.00,,,0.00,meteohub,2013-05-08 15:27:00,
2013-05-08 10:32:00,67.8,59.5,29.99,South,180,0.0,3.0,75,0.00,,,0.00,meteohub,2013-05-08 15:32:00,
2013-05-08 10:37:00,68.2,59.9,29.99,SE,135,0.0,2.0,75,0.00,,,0.00,meteohub,2013-05-08 15:37:00,
2013-05-08 10:42:00,68.4,59.7,29.99,South,180,2.0,0.0,74,0.00,,,0.00,meteohub,2013-05-08 15:42:00,
2013-05-08 10:47:00,68.7,60.1,29.99,SW,225,2.0,2.0,74,0.00,,,0.00,meteohub,2013-05-08 15:47:00,
2013-05-08 10:52:00,69.1,60.1,29.99,WSW,248,2.0,2.0,73,0.00,,,0.00,meteohub,2013-05-08 15:52:00,
2013-05-08 10:57:00,69.6,60.3,29.99,West,270,2.0,2.0,72,0.00,,,0.00,meteohub,2013-05-08 15:57:00,
2013-05-08 11:02:00,69.4,59.5,29.99,West,270,4.0,4.0,71,0.00,,,0.00,meteohub,2013-05-08 16:02:00,
2013-05-08 11:07:00,69.8,59.9,29.99,West,270,3.0,4.0,71,0.00,,,0.00,meteohub,2013-05-08 16:07:00,
2013-05-08 11:12:00,70.0,60.6,29.99,West,270,7.0,7.0,72,0.00,,,0.00,meteohub,2013-05-08 16:12:00,
2013-05-08 11:17:00,69.8,59.9,29.99,WSW,248,4.0,7.0,71,0.00,,,0.00,meteohub,2013-05-08 16:17:00,
2013-05-08 11:22:00,69.6,59.7,30.00,ENE,68,0.0,7.0,71,0.00,,,0.00,meteohub,2013-05-08 16:22:00,
2013-05-08 11:27:00,69.4,59.2,30.00,NNE,23,0.0,7.0,70,0.00,,,0.00,meteohub,2013-05-08 16:27:00,
2013-05-08 11:32:00,69.6,59.4,30.00,NNW,338,0.0,6.0,70,0.00,,,0.00,meteohub,2013-05-08 16:32:00,
2013-05-08 11:37:00,69.4,59.2,30.00,NW,315,0.0,2.0,70,0.00,,,0.00,meteohub,2013-05-08 16:37:00,
2013-05-08 11:42:00,69.6,59.4,29.99,NE,45,2.0,2.0,70,0.00,,,0.00,meteohub,2013-05-08 16:42:00,
2013-05-08 11:47:00,69.6,59.7,29.99,WSW,248,0.0,2.0,71,0.00,,,0.00,meteohub,2013-05-08 16:47:00,
2013-05-08 11:52:00,69.6,59.7,29.99,West,270,2.0,2.0,71,0.00,,,0.00,meteohub,2013-05-08 16:52:00,
2013-05-08 11:57:00,69.3,59.5,29.99,WSW,248,0.0,2.0,71,0.00,,,0.00,meteohub,2013-05-08 16:57:00,
2013-05-08 12:02:00,69.1,59.4,29.98,SSE,158,0.0,2.0,71,0.00,,,0.00,meteohub,2013-05-08 17:02:00,
2013-05-08 12:07:00,69.3,59.5,29.98,East,90,0.0,2.0,71,0.00,,,0.00,meteohub,2013-05-08 17:07:00,
2013-05-08 12:12:00,69.1,58.8,29.98,ESE,113,0.0,1.0,70,0.00,,,0.00,meteohub,2013-05-08 17:12:00,
2013-05-08 12:17:00,69.1,59.4,29.98,West,270,0.0,0.0,71,0.00,,,0.00,meteohub,2013-05-08 17:17:00,
2013-05-08 12:22:00,69.4,59.5,29.98,ESE,113,0.0,0.0,71,0.00,,,0.00,meteohub,2013-05-08 17:22:00,
2013-05-08 12:27:00,69.4,59.5,29.98,SW,225,0.0,0.0,71,0.00,,,0.00,meteohub,2013-05-08 17:27:00,
2013-05-08 12:33:00,69.4,59.5,29.98,NW,315,0.0,0.0,71,0.00,,,0.00,meteohub,2013-05-08 17:33:00,
2013-05-08 12:38:00,69.4,59.5,29.98,SW,225,0.0,0.0,71,0.00,,,0.00,meteohub,2013-05-08 17:38:00,
2013-05-08 12:43:00,69.3,59.5,29.99,West,270,0.0,2.0,71,0.00,,,0.00,meteohub,2013-05-08 17:43:00,
2013-05-08 12:48:00,68.9,59.5,29.99,SW,225,1.0,2.0,72,0.00,,,0.00,meteohub,2013-05-08 17:48:00,
2013-05-08 12:53:00,68.9,59.5,29.99,NW,315,0.0,2.0,72,0.00,,,0.00,meteohub,2013-05-08 17:53:00,
2013-05-08 12:58:00,68.5,59.2,29.99,SW,225,0.0,2.0,72,0.00,,,0.00,meteohub,2013-05-08 17:58:00,
2013-05-08 13:03:00,68.5,59.5,30.00,WSW,248,2.0,4.0,73,0.00,,,0.00,meteohub,2013-05-08 18:03:00,
2013-05-08 13:08:00,68.5,59.5,30.00,West,270,3.0,4.0,73,0.00,,,0.00,meteohub,2013-05-08 18:08:00,
2013-05-08 13:13:00,68.5,59.9,30.00,NW,315,5.0,5.0,74,0.00,,,0.00,meteohub,2013-05-08 18:13:00,
2013-05-08 13:18:00,68.2,59.5,30.00,WSW,248,5.0,5.0,74,0.00,,,0.00,meteohub,2013-05-08 18:18:00,
2013-05-08 13:23:00,68.0,59.0,30.01,West,270,6.0,6.0,73,0.00,,,0.00,meteohub,2013-05-08 18:23:00,
2013-05-08 13:28:00,67.6,58.6,30.01,NE,45,3.0,6.0,73,0.00,,,0.00,meteohub,2013-05-08 18:28:00,
2013-05-08 13:33:00,67.5,58.8,30.01,West,270,4.0,6.0,74,0.00,,,0.00,meteohub,2013-05-08 18:33:00,
2013-05-08 13:38:00,67.1,58.8,30.01,SW,225,3.0,6.0,75,0.00,,,0.00,meteohub,2013-05-08 18:38:00,
2013-05-08 13:43:00,66.7,59.0,30.02,WSW,248,7.0,7.0,76,0.00,,,0.00,meteohub,2013-05-08 18:43:00,
2013-05-08 13:48:00,66.7,59.0,30.02,NW,315,4.0,6.0,76,0.00,,,0.00,meteohub,2013-05-08 18:48:00,
2013-05-08 13:53:00,66.4,58.6,30.02,WSW,248,5.0,7.0,76,0.00,,,0.00,meteohub,2013-05-08 18:53:00,
2013-05-08 13:58:00,66.2,58.5,30.02,NNE,23,2.0,7.0,76,0.00,,,0.00,meteohub,2013-05-08 18:58:00,
2013-05-08 14:03:00,66.0,58.3,30.01,NW,315,0.0,5.0,76,0.00,,,0.00,meteohub,2013-05-08 19:03:00,
2013-05-08 14:08:00,65.7,58.3,30.01,East,90,0.0,5.0,77,0.00,,,0.00,meteohub,2013-05-08 19:08:00,
2013-05-08 14:13:00,65.3,57.9,30.01,ESE,113,2.0,3.0,77,0.00,,,0.00,meteohub,2013-05-08 19:13:00,
2013-05-08 14:18:00,65.3,58.3,30.01,SE,135,4.0,4.0,78,0.00,,,0.00,meteohub,2013-05-08 19:18:00,
2013-05-08 14:23:00,64.4,57.7,29.96,ESE,113,3.0,4.0,79,0.00,,,0.00,meteohub,2013-05-08 19:23:00,
2013-05-08 14:28:00,64.0,57.4,29.96,ESE,113,4.0,6.0,79,0.03,,,0.03,meteohub,2013-05-08 19:28:00,
2013-05-08 14:33:00,63.7,57.4,29.96,ESE,113,4.0,6.0,80,0.03,,,0.03,meteohub,2013-05-08 19:33:00,
2013-05-08 14:38:00,63.3,57.0,29.97,SE,135,3.0,6.0,80,0.03,,,0.03,meteohub,2013-05-08 19:38:00,
2013-05-08 14:43:00,63.3,57.4,29.89,SE,135,0.0,6.0,81,0.03,,,0.03,meteohub,2013-05-08 19:43:00,
2013-05-08 14:48:00,63.7,57.7,29.89,ESE,113,3.0,5.0,81,0.03,,,0.03,meteohub,2013-05-08 19:48:00,
2013-05-08 14:53:00,63.7,57.7,29.89,SE,135,2.0,5.0,81,0.03,,,0.03,meteohub,2013-05-08 19:53:00,
2013-05-08 14:58:00,63.9,57.9,29.89,SE,135,2.0,4.0,81,0.03,,,0.03,meteohub,2013-05-08 19:58:00,
2013-05-08 15:03:00,64.4,58.5,29.91,ESE,113,2.0,4.0,81,0.03,,,0.03,meteohub,2013-05-08 20:03:00,
2013-05-08 15:08:00,64.6,58.6,29.91,ESE,113,3.0,4.0,81,0.03,,,0.03,meteohub,2013-05-08 20:08:00,
2013-05-08 15:13:00,64.8,58.5,29.91,ESE,113,3.0,4.0,80,0.03,,,0.03,meteohub,2013-05-08 20:13:00,
2013-05-08 15:18:00,65.1,58.8,29.90,ESE,113,6.0,6.0,80,0.03,,,0.03,meteohub,2013-05-08 20:18:00,
2013-05-08 15:23:00,65.3,59.0,29.90,South,180,0.0,4.0,80,0.00,,,0.03,meteohub,2013-05-08 20:23:00,
2013-05-08 15:28:00,65.8,59.2,29.90,SE,135,2.0,6.0,79,0.00,,,0.03,meteohub,2013-05-08 20:28:00,
2013-05-08 15:33:00,66.2,59.5,29.90,ESE,113,2.0,6.0,79,0.00,,,0.03,meteohub,2013-05-08 20:33:00,
2013-05-08 15:38:00,66.6,59.5,29.90,SE,135,4.0,4.0,78,0.00,,,0.03,meteohub,2013-05-08 20:38:00,
2013-05-08 15:43:00,67.1,59.7,29.92,SE,135,0.0,3.0,77,0.00,,,0.03,meteohub,2013-05-08 20:43:00,
2013-05-08 15:48:00,67.1,59.4,29.92,SW,225,1.0,4.0,76,0.00,,,0.03,meteohub,2013-05-08 20:48:00,
2013-05-08 15:53:00,67.1,59.4,29.92,SW,225,3.0,4.0,76,0.00,,,0.03,meteohub,2013-05-08 20:53:00,
2013-05-08 15:58:00,67.1,59.4,29.90,ESE,113,0.0,2.0,76,0.00,,,0.03,meteohub,2013-05-08 20:58:00,
2013-05-08 16:04:00,67.3,59.5,29.90,SE,135,0.0,3.0,76,0.00,,,0.03,meteohub,2013-05-08 21:04:00,
2013-05-08 16:09:00,67.5,59.5,29.90,WSW,248,0.0,3.0,76,0.00,,,0.03,meteohub,2013-05-08 21:09:00,
2013-05-08 16:14:00,67.8,59.5,29.90,SSE,158,0.0,2.0,75,0.00,,,0.03,meteohub,2013-05-08 21:14:00,
2013-05-08 16:19:00,68.2,59.9,29.90,ESE,113,3.0,3.0,75,0.00,,,0.03,meteohub,2013-05-08 21:19:00,
2013-05-08 16:24:00,68.5,59.9,29.88,SE,135,4.0,4.0,74,0.00,,,0.03,meteohub,2013-05-08 21:24:00,
2013-05-08 16:29:00,68.7,60.1,29.88,SSE,158,0.0,3.0,74,0.00,,,0.03,meteohub,2013-05-08 21:29:00,
2013-05-08 16:34:00,68.9,60.3,29.88,ESE,113,3.0,4.0,74,0.00,,,0.03,meteohub,2013-05-08 21:34:00,
2013-05-08 16:39:00,69.3,60.3,29.88,SSW,203,1.0,4.0,73,0.00,,,0.03,meteohub,2013-05-08 21:39:00,
2013-05-08 16:44:00,69.4,60.1,29.88,SW,225,2.0,3.0,72,0.00,,,0.03,meteohub,2013-05-08 21:44:00,
2013-05-08 16:49:00,70.0,60.6,29.88,SE,135,3.0,3.0,72,0.00,,,0.03,meteohub,2013-05-08 21:49:00,
2013-05-08 16:54:00,70.2,60.6,29.88,SE,135,3.0,3.0,72,0.00,,,0.03,meteohub,2013-05-08 21:54:00,
2013-05-08 16:59:00,70.7,60.8,29.88,ESE,113,2.0,3.0,71,0.00,,,0.03,meteohub,2013-05-08 21:59:00,
2013-05-08 17:04:00,70.9,60.6,29.88,SE,135,4.0,4.0,70,0.00,,,0.03,meteohub,2013-05-08 22:04:00,
2013-05-08 17:09:00,71.4,61.5,29.88,SE,135,3.0,3.0,71,0.00,,,0.03,meteohub,2013-05-08 22:09:00,
2013-05-08 17:14:00,71.4,60.8,29.88,SE,135,4.0,4.0,69,0.00,,,0.03,meteohub,2013-05-08 22:14:00,
2013-05-08 17:19:00,71.6,60.8,29.88,ESE,113,3.0,6.0,69,0.00,,,0.03,meteohub,2013-05-08 22:19:00,
2013-05-08 17:24:00,71.8,61.0,29.88,SE,135,0.0,6.0,69,0.00,,,0.03,meteohub,2013-05-08 22:24:00,
2013-05-08 17:29:00,71.8,61.0,29.88,ESE,113,2.0,6.0,69,0.00,,,0.03,meteohub,2013-05-08 22:29:00,
2013-05-08 17:34:00,72.1,61.3,29.88,ESE,113,3.0,4.0,69,0.00,,,0.03,meteohub,2013-05-08 22:34:00,
2013-05-08 17:39:00,72.1,61.3,29.87,ESE,113,2.0,4.0,69,0.00,,,0.03,meteohub,2013-05-08 22:39:00,
2013-05-08 17:44:00,72.3,61.5,29.87,ESE,113,1.0,3.0,69,0.00,,,0.03,meteohub,2013-05-08 22:44:00,
2013-05-08 17:49:00,72.5,61.3,29.87,SE,135,0.0,3.0,68,0.00,,,0.03,meteohub,2013-05-08 22:49:00,
2013-05-08 17:54:00,72.5,61.3,29.87,East,90,2.0,3.0,68,0.00,,,0.03,meteohub,2013-05-08 22:54:00,
2013-05-08 17:59:00,72.7,61.5,29.86,ESE,113,2.0,3.0,68,0.00,,,0.03,meteohub,2013-05-08 22:59:00,
2013-05-08 18:04:00,72.7,61.5,29.86,ESE,113,2.0,3.0,68,0.00,,,0.03,meteohub,2013-05-08 23:04:00,
2013-05-08 18:09:00,72.9,61.7,29.86,ESE,113,2.0,2.0,68,0.00,,,0.03,meteohub,2013-05-08 23:09:00,
2013-05-08 18:14:00,73.0,61.9,29.86,ESE,113,3.0,3.0,68,0.00,,,0.03,meteohub,2013-05-08 23:14:00,
2013-05-08 18:19:00,73.6,61.9,29.86,ESE,113,2.0,2.0,67,0.00,,,0.03,meteohub,2013-05-08 23:19:00,
2013-05-08 18:24:00,73.6,61.9,29.86,ESE,113,2.0,3.0,67,0.00,,,0.03,meteohub,2013-05-08 23:24:00,
2013-05-08 18:29:00,73.8,62.1,29.86,ENE,68,2.0,4.0,67,0.00,,,0.03,meteohub,2013-05-08 23:29:00,
2013-05-08 18:34:00,73.9,62.2,29.86,East,90,0.0,4.0,67,0.00,,,0.03,meteohub,2013-05-08 23:34:00,
2013-05-08 18:39:00,74.3,62.6,29.86,ESE,113,2.0,2.0,67,0.00,,,0.03,meteohub,2013-05-08 23:39:00,
2013-05-08 18:44:00,74.7,63.0,29.85,ESE,113,3.0,3.0,67,0.00,,,0.03,meteohub,2013-05-08 23:44:00,
2013-05-08 18:49:00,74.5,62.4,29.85,ESE,113,0.0,2.0,66,0.00,,,0.03,meteohub,2013-05-08 23:49:00,
2013-05-08 18:54:00,74.7,62.1,29.85,ESE,113,2.0,3.0,65,0.00,,,0.03,meteohub,2013-05-08 23:54:00,
2013-05-08 19:00:00,74.5,61.9,29.84,ESE,113,2.0,3.0,65,0.00,,,0.03,meteohub,2013-05-09 00:00:00,
2013-05-08 19:05:00,74.5,61.5,29.84,ESE,113,2.0,3.0,64,0.00,,,0.03,meteohub,2013-05-09 00:05:00,
2013-05-08 19:10:00,74.3,61.3,29.84,ESE,113,0.0,2.0,64,0.00,,,0.03,meteohub,2013-05-09 00:10:00,
2013-05-08 19:15:00,73.9,61.0,29.85,ESE,113,0.0,2.0,64,0.00,,,0.03,meteohub,2013-05-09 00:15:00,
2013-05-08 19:20:00,73.6,60.6,29.85,ESE,113,1.0,2.0,64,0.00,,,0.03,meteohub,2013-05-09 00:20:00,
2013-05-08 19:25:00,73.2,60.3,29.85,ESE,113,2.0,2.0,64,0.00,,,0.03,meteohub,2013-05-09 00:25:00,
2013-05-08 19:30:00,72.9,59.9,29.85,ESE,113,2.0,2.0,64,0.00,,,0.03,meteohub,2013-05-09 00:30:00,
2013-05-08 19:35:00,72.7,60.3,29.85,ESE,113,2.0,2.0,65,0.00,,,0.03,meteohub,2013-05-09 00:35:00,
2013-05-08 19:40:00,72.5,60.1,29.84,ESE,113,0.0,2.0,65,0.00,,,0.03,meteohub,2013-05-09 00:40:00,
2013-05-08 19:45:00,72.1,60.1,29.84,SE,135,0.0,2.0,66,0.00,,,0.03,meteohub,2013-05-09 00:45:00,
2013-05-08 19:50:00,71.8,59.7,29.84,ESE,113,0.0,2.0,66,0.00,,,0.03,meteohub,2013-05-09 00:50:00,
2013-05-08 19:55:00,71.4,59.9,29.84,SE,135,0.0,2.0,67,0.00,,,0.03,meteohub,2013-05-09 00:55:00,
2013-05-08 20:00:00,71.1,59.9,29.84,ESE,113,0.0,2.0,68,0.00,,,0.03,meteohub,2013-05-09 01:00:00,
2013-05-08 20:05:00,70.2,59.5,29.85,SSE,158,0.0,0.0,69,0.00,,,0.03,meteohub,2013-05-09 01:05:00,
2013-05-08 20:10:00,70.0,59.4,29.85,ESE,113,0.0,0.0,69,0.00,,,0.03,meteohub,2013-05-09 01:10:00,
2013-05-08 20:15:00,69.4,59.2,29.85,ESE,113,0.0,1.0,70,0.00,,,0.03,meteohub,2013-05-09 01:15:00,
2013-05-08 20:20:00,69.3,59.5,29.85,ESE,113,0.0,1.0,71,0.00,,,0.03,meteohub,2013-05-09 01:20:00,
2013-05-08 20:25:00,68.7,59.0,29.85,ESE,113,0.0,1.0,71,0.00,,,0.03,meteohub,2013-05-09 01:25:00,
2013-05-08 20:30:00,68.7,59.0,29.85,SE,135,0.0,0.0,71,0.00,,,0.03,meteohub,2013-05-09 01:30:00,
2013-05-08 20:35:00,68.5,58.8,29.85,NE,45,0.0,0.0,71,0.00,,,0.03,meteohub,2013-05-09 01:35:00,
2013-05-08 20:40:00,68.2,58.8,29.84,NE,45,0.0,0.0,72,0.00,,,0.03,meteohub,2013-05-09 01:40:00,
2013-05-08 20:45:00,68.0,58.6,29.84,ENE,68,0.0,0.0,72,0.00,,,0.03,meteohub,2013-05-09 01:45:00,
2013-05-08 20:50:00,67.8,58.5,29.84,ENE,68,0.0,0.0,72,0.00,,,0.03,meteohub,2013-05-09 01:50:00,
2013-05-08 20:55:00,67.1,58.1,29.84,ENE,68,0.0,0.0,73,0.00,,,0.03,meteohub,2013-05-09 01:55:00,
2013-05-08 21:00:00,66.9,57.9,29.85,ESE,113,0.0,0.0,73,0.00,,,0.03,meteohub,2013-05-09 02:00:00,
2013-05-08 21:05:00,66.6,58.1,29.85,ENE,68,0.0,0.0,74,0.00,,,0.03,meteohub,2013-05-09 02:05:00,
2013-05-08 21:10:00,66.4,57.9,29.85,ENE,68,0.0,0.0,74,0.00,,,0.03,meteohub,2013-05-09 02:10:00,
2013-05-08 21:15:00,66.0,57.9,29.85,ENE,68,0.0,0.0,75,0.00,,,0.03,meteohub,2013-05-09 02:15:00,
2013-05-08 21:20:00,65.5,57.4,29.86,ESE,113,2.0,0.0,75,0.00,,,0.03,meteohub,2013-05-09 02:20:00,
2013-05-08 21:25:00,65.7,57.6,29.86,ESE,113,1.0,2.0,75,0.00,,,0.03,meteohub,2013-05-09 02:25:00,
2013-05-08 21:30:00,65.5,57.7,29.86,ESE,113,0.0,2.0,76,0.00,,,0.03,meteohub,2013-05-09 02:30:00,
2013-05-08 21:35:00,65.7,57.9,29.86,East,90,0.0,2.0,76,0.00,,,0.03,meteohub,2013-05-09 02:35:00,
2013-05-08 21:40:00,65.7,57.9,29.87,ESE,113,0.0,2.0,76,0.00,,,0.03,meteohub,2013-05-09 02:40:00,
2013-05-08 21:45:00,65.7,57.9,29.87,ESE,113,0.0,2.0,76,0.00,,,0.03,meteohub,2013-05-09 02:45:00,
2013-05-08 21:50:00,65.5,57.7,29.87,ESE,113,0.0,0.0,76,0.00,,,0.03,meteohub,2013-05-09 02:50:00,
2013-05-08 21:55:00,65.1,57.4,29.88,South,180,0.0,0.0,76,0.00,,,0.03,meteohub,2013-05-09 02:55:00,
2013-05-08 22:00:00,64.9,57.6,29.88,SE,135,0.0,0.0,77,0.00,,,0.03,meteohub,2013-05-09 03:00:00,
2013-05-08 22:05:00,64.6,57.2,29.88,SSE,158,0.0,0.0,77,0.00,,,0.03,meteohub,2013-05-09 03:05:00,
2013-05-08 22:10:00,64.0,56.7,29.88,NW,315,0.0,0.0,77,0.00,,,0.03,meteohub,2013-05-09 03:10:00,
2013-05-08 22:15:00,63.9,56.5,29.88,SE,135,0.0,0.0,77,0.00,,,0.03,meteohub,2013-05-09 03:15:00,
2013-05-08 22:20:00,63.7,56.7,29.88,SE,135,0.0,0.0,78,0.00,,,0.03,meteohub,2013-05-09 03:20:00,
2013-05-08 22:25:00,63.1,56.1,29.88,SE,135,0.0,0.0,78,0.00,,,0.03,meteohub,2013-05-09 03:25:00,
2013-05-08 22:30:00,63.0,55.9,29.88,NE,45,0.0,0.0,78,0.00,,,0.03,meteohub,2013-05-09 03:30:00,
2013-05-08 22:35:00,62.6,55.9,29.88,SE,135,0.0,0.0,79,0.00,,,0.03,meteohub,2013-05-09 03:35:00,
2013-05-08 22:40:00,62.2,55.6,29.89,ENE,68,0.0,0.0,79,0.00,,,0.03,meteohub,2013-05-09 03:40:00,
2013-05-08 22:45:00,61.9,55.2,29.89,WNW,293,0.0,0.0,79,0.00,,,0.03,meteohub,2013-05-09 03:45:00,
2013-05-08 22:51:00,61.5,55.2,29.89,SSE,158,0.0,0.0,80,0.00,,,0.03,meteohub,2013-05-09 03:51:00,
2013-05-08 22:55:00,61.3,55.0,29.89,ESE,113,0.0,0.0,80,0.00,,,0.03,meteohub,2013-05-09 03:55:00,
2013-05-08 23:01:00,61.3,55.4,29.90,West,270,0.0,0.0,81,0.00,,,0.03,meteohub,2013-05-09 04:01:00,
2013-05-08 23:06:00,60.8,54.9,29.91,SW,225,0.0,0.0,81,0.00,,,0.03,meteohub,2013-05-09 04:06:00,
2013-05-08 23:11:00,60.6,54.7,29.91,SE,135,0.0,0.0,81,0.00,,,0.03,meteohub,2013-05-09 04:11:00,
2013-05-08 23:16:00,60.6,54.7,29.91,SE,135,0.0,0.0,81,0.00,,,0.03,meteohub,2013-05-09 04:16:00,
2013-05-08 23:22:00,60.6,55.0,29.91,NNE,23,0.0,0.0,82,0.00,,,0.03,meteohub,2013-05-09 04:22:00,
2013-05-08 23:27:00,60.3,54.7,29.91,ESE,113,0.0,0.0,82,0.00,,,0.03,meteohub,2013-05-09 04:27:00,
2013-05-08 23:32:00,60.1,54.5,29.91,ESE,113,0.0,0.0,82,0.00,,,0.03,meteohub,2013-05-09 04:32:00,
2013-05-08 23:37:00,60.3,54.7,29.91,NE,45,0.0,0.0,82,0.00,,,0.03,meteohub,2013-05-09 04:37:00,
2013-05-08 23:42:00,60.1,54.9,29.91,SE,135,0.0,0.0,83,0.00,,,0.03,meteohub,2013-05-09 04:42:00,
2013-05-08 23:47:00,59.9,54.3,29.91,SW,225,0.0,0.0,82,0.00,,,0.03,meteohub,2013-05-09 04:47:00,
2013-05-08 23:52:00,59.9,54.7,29.91,South,180,0.0,0.0,83,0.00,,,0.03,meteohub,2013-05-09 04:52:00,
2013-05-08 23:57:00,59.5,54.3,29.91,SW,225,0.0,0.0,83,0.00,,,0.03,meteohub,2013-05-09 04:57:00,